Accueil
METAR-TAF:

METAR-TAF

Aéroports :

Morlaix, France

Aéroport de Morlaix Ploujean

latitude: 48-36N, longitude: 3-49W, altitude: 84 m

Observation

Le bulletin a été fait il y a 20 minutes, à 18:30 UTC
Vent 3 kt de nord-ouest, variant entre ouest et nord/nord-ouest
Température 13°C
Humidité 94%
Pression 1014 hPa
Visibilité 10 km ou plus

METAR: LFRU 171830Z AUTO 31003KT 270V340 9999 OVC024/// ///TCU 13/12 Q1014

Heure: 20:50 (18:50 UTC)


TAF: absent

Observations et prévisions météorologiques de plus de 4000 aéroports (messages METAR et TAF).

Les stations disponibles sont représentées par des disques jaunes et rouges sur la carte.

Passer la souris dessus pour voir le nom de la station.

Cliquer dessus pour voir les observations et prévisions météorologiques.

Pour changer de carte: cliquez sur les boutons verts avec une croix noire pour zoomer, sur le bouton vert avec un tiret pour effectuer un zoom arrière, ou sur les flèches vertes pour les cartes adjacentes.


METAR-TAF: